Time,TemperatureF,DewpointF,PressureIn,WindDirection,WindDirectionDegrees,WindSpeedMPH,WindSpeedGustMPH,Humidity,HourlyPrecipIn,Conditions,Clouds,dailyrainin,SoftwareType,DateUTC
2013-06-22 00:00:00,67.8,66.3,30.16,SW,222,1.0,2.0,95,0.00,,,0.02,Wunderground v.1.15,2013-06-22 05:00:00,
2013-06-22 00:05:00,67.7,66.2,30.16,SW,222,0.0,2.0,95,0.00,,,0.00,Wunderground v.1.15,2013-06-22 05:05:00,
2013-06-22 00:10:00,67.4,65.6,30.16,SW,221,0.0,2.0,94,0.00,,,0.00,Wunderground v.1.15,2013-06-22 05:10:00,
2013-06-22 00:16:00,67.1,65.6,30.16,SW,219,0.0,2.0,95,0.00,,,0.00,Wunderground v.1.15,2013-06-22 05:16:00,
2013-06-22 00:21:00,66.9,65.4,30.15,SW,219,0.0,2.0,95,0.00,,,0.00,Wunderground v.1.15,2013-06-22 05:21:00,
2013-06-22 00:26:00,66.8,65.3,30.16,SW,221,0.0,2.0,95,0.00,,,0.00,Wunderground v.1.15,2013-06-22 05:26:00,
2013-06-22 00:32:00,66.8,65.3,30.15,West,278,0.0,2.0,95,0.00,,,0.00,Wunderground v.1.15,2013-06-22 05:32:00,
2013-06-22 00:37:00,66.7,65.2,30.15,West,278,0.0,2.0,95,0.00,,,0.00,Wunderground v.1.15,2013-06-22 05:37:00,
2013-06-22 00:43:00,66.5,65.3,30.15,West,278,0.0,2.0,96,0.00,,,0.00,Wunderground v.1.15,2013-06-22 05:43:00,
2013-06-22 00:48:00,66.4,65.2,30.15,West,278,0.0,2.0,96,0.00,,,0.00,Wunderground v.1.15,2013-06-22 05:48:00,
2013-06-22 00:53:00,66.4,65.2,30.14,West,278,0.0,2.0,96,0.00,,,0.00,Wunderground v.1.15,2013-06-22 05:53:00,
2013-06-22 00:58:00,66.2,65.0,30.14,West,278,0.0,2.0,96,0.00,,,0.00,Wunderground v.1.15,2013-06-22 05:58:00,
2013-06-22 01:04:00,66.3,65.1,30.14,West,278,0.0,2.0,96,0.00,,,0.00,Wunderground v.1.15,2013-06-22 06:04:00,
2013-06-22 01:09:00,66.1,64.9,30.14,West,278,0.0,2.0,96,0.00,,,0.00,Wunderground v.1.15,2013-06-22 06:09:00,
2013-06-22 01:14:00,65.9,64.7,30.14,West,278,0.0,2.0,96,0.00,,,0.00,Wunderground v.1.15,2013-06-22 06:14:00,
2013-06-22 01:19:00,65.9,64.7,30.14,West,278,0.0,2.0,96,0.00,,,0.00,Wunderground v.1.15,2013-06-22 06:19:00,
2013-06-22 01:25:00,65.9,64.7,30.14,West,278,0.0,2.0,96,0.00,,,0.00,Wunderground v.1.15,2013-06-22 06:25:00,
2013-06-22 01:30:00,65.9,65.0,30.14,West,278,0.0,2.0,97,0.00,,,0.00,Wunderground v.1.15,2013-06-22 06:30:00,
2013-06-22 01:35:00,65.7,64.5,30.13,West,278,0.0,2.0,96,0.00,,,0.00,Wunderground v.1.15,2013-06-22 06:35:00,
2013-06-22 01:41:00,65.6,64.7,30.14,West,278,0.0,2.0,97,0.00,,,0.00,Wunderground v.1.15,2013-06-22 06:41:00,
2013-06-22 01:46:00,65.5,64.6,30.13,West,273,0.0,2.0,97,0.00,,,0.00,Wunderground v.1.15,2013-06-22 06:46:00,
2013-06-22 01:51:00,65.4,64.5,30.13,West,274,0.0,2.0,97,0.00,,,0.00,Wunderground v.1.15,2013-06-22 06:51:00,
2013-06-22 01:57:00,65.5,64.6,30.13,West,273,0.0,2.0,97,0.00,,,0.00,Wunderground v.1.15,2013-06-22 06:57:00,
2013-06-22 02:02:00,65.4,64.5,30.13,West,273,0.0,2.0,97,0.00,,,0.00,Wunderground v.1.15,2013-06-22 07:02:00,
2013-06-22 02:07:00,65.4,64.5,30.13,West,274,0.0,2.0,97,0.00,,,0.00,Wunderground v.1.15,2013-06-22 07:07:00,
2013-06-22 02:13:00,65.4,64.2,30.13,West,274,0.0,2.0,96,0.00,,,0.00,Wunderground v.1.15,2013-06-22 07:13:00,
2013-06-22 02:18:00,65.2,64.0,30.13,West,273,0.0,2.0,96,0.00,,,0.00,Wunderground v.1.15,2013-06-22 07:18:00,
2013-06-22 02:23:00,65.2,64.0,30.13,West,273,0.0,2.0,96,0.00,,,0.00,Wunderground v.1.15,2013-06-22 07:23:00,
2013-06-22 02:29:00,65.2,64.0,30.13,West,275,0.0,2.0,96,0.00,,,0.00,Wunderground v.1.15,2013-06-22 07:29:00,
2013-06-22 02:34:00,65.3,64.4,30.13,West,273,0.0,2.0,97,0.00,,,0.00,Wunderground v.1.15,2013-06-22 07:34:00,
2013-06-22 02:39:00,65.4,64.5,30.13,West,274,0.0,2.0,97,0.00,,,0.00,Wunderground v.1.15,2013-06-22 07:39:00,
2013-06-22 02:44:00,65.3,64.4,30.13,West,275,0.0,2.0,97,0.00,,,0.00,Wunderground v.1.15,2013-06-22 07:44:00,
2013-06-22 02:50:00,65.0,63.8,30.13,West,275,0.0,2.0,96,0.00,,,0.00,Wunderground v.1.15,2013-06-22 07:50:00,
2013-06-22 02:55:00,64.8,63.6,30.13,West,275,0.0,2.0,96,0.00,,,0.00,Wunderground v.1.15,2013-06-22 07:55:00,
2013-06-22 03:00:00,64.9,64.0,30.13,West,272,0.0,2.0,97,0.00,,,0.00,Wunderground v.1.15,2013-06-22 08:00:00,
2013-06-22 03:06:00,65.0,64.1,30.13,ESE,116,0.0,2.0,97,0.00,,,0.00,Wunderground v.1.15,2013-06-22 08:06:00,
2013-06-22 03:11:00,64.8,63.9,30.13,ESE,116,0.0,2.0,97,0.00,,,0.00,Wunderground v.1.15,2013-06-22 08:11:00,
2013-06-22 03:16:00,64.8,63.9,30.13,WNW,282,0.0,2.0,97,0.00,,,0.00,Wunderground v.1.15,2013-06-22 08:16:00,
2013-06-22 03:22:00,64.7,63.8,30.13,WNW,283,0.0,2.0,97,0.00,,,0.00,Wunderground v.1.15,2013-06-22 08:22:00,
2013-06-22 03:27:00,64.5,63.6,30.13,WNW,282,0.0,2.0,97,0.00,,,0.00,Wunderground v.1.15,2013-06-22 08:27:00,
2013-06-22 03:32:00,64.4,63.5,30.13,WNW,282,0.0,2.0,97,0.00,,,0.00,Wunderground v.1.15,2013-06-22 08:32:00,
2013-06-22 03:37:00,64.2,63.3,30.13,WNW,282,0.0,2.0,97,0.00,,,0.00,Wunderground v.1.15,2013-06-22 08:37:00,
2013-06-22 03:43:00,64.3,63.4,30.13,WNW,282,0.0,2.0,97,0.00,,,0.00,Wunderground v.1.15,2013-06-22 08:43:00,
2013-06-22 03:48:00,64.2,63.3,30.13,West,279,0.0,2.0,97,0.00,,,0.00,Wunderground v.1.15,2013-06-22 08:48:00,
2013-06-22 03:53:00,64.2,63.3,30.13,West,280,0.0,2.0,97,0.00,,,0.00,Wunderground v.1.15,2013-06-22 08:53:00,
2013-06-22 03:58:00,64.1,63.2,30.13,West,280,0.0,2.0,97,0.00,,,0.00,Wunderground v.1.15,2013-06-22 08:58:00,
2013-06-22 04:04:00,64.0,63.1,30.13,West,280,0.0,2.0,97,0.00,,,0.00,Wunderground v.1.15,2013-06-22 09:04:00,
2013-06-22 04:09:00,64.0,63.1,30.13,West,280,0.0,2.0,97,0.00,,,0.00,Wunderground v.1.15,2013-06-22 09:09:00,
2013-06-22 04:14:00,64.1,63.2,30.13,West,280,0.0,2.0,97,0.00,,,0.00,Wunderground v.1.15,2013-06-22 09:14:00,
2013-06-22 04:20:00,64.0,63.1,30.13,West,279,0.0,2.0,97,0.00,,,0.00,Wunderground v.1.15,2013-06-22 09:20:00,
2013-06-22 04:25:00,63.9,63.0,30.13,West,280,0.0,2.0,97,0.00,,,0.00,Wunderground v.1.15,2013-06-22 09:25:00,
2013-06-22 04:30:00,63.9,63.0,30.14,West,280,0.0,2.0,97,0.00,,,0.00,Wunderground v.1.15,2013-06-22 09:30:00,
2013-06-22 04:36:00,63.9,63.0,30.14,West,280,0.0,2.0,97,0.00,,,0.00,Wunderground v.1.15,2013-06-22 09:36:00,
2013-06-22 04:41:00,63.9,63.0,30.14,West,280,0.0,2.0,97,0.00,,,0.00,Wunderground v.1.15,2013-06-22 09:41:00,
2013-06-22 04:46:00,63.9,63.0,30.14,West,280,0.0,2.0,97,0.00,,,0.00,Wunderground v.1.15,2013-06-22 09:46:00,
2013-06-22 04:51:00,63.9,63.0,30.14,West,280,0.0,2.0,97,0.00,,,0.00,Wunderground v.1.15,2013-06-22 09:51:00,
2013-06-22 04:57:00,63.9,63.0,30.14,West,281,0.0,2.0,97,0.00,,,0.00,Wunderground v.1.15,2013-06-22 09:57:00,
2013-06-22 05:02:00,63.9,63.0,30.14,West,280,0.0,2.0,97,0.00,,,0.00,Wunderground v.1.15,2013-06-22 10:02:00,
2013-06-22 05:07:00,63.8,62.9,30.14,West,280,0.0,2.0,97,0.00,,,0.00,Wunderground v.1.15,2013-06-22 10:07:00,
2013-06-22 05:13:00,63.7,62.8,30.15,West,265,0.0,2.0,97,0.00,,,0.00,Wunderground v.1.15,2013-06-22 10:13:00,
2013-06-22 05:18:00,63.5,62.6,30.15,West,265,0.0,2.0,97,0.00,,,0.00,Wunderground v.1.15,2013-06-22 10:18:00,
2013-06-22 05:23:00,63.4,62.5,30.15,West,265,0.0,2.0,97,0.00,,,0.00,Wunderground v.1.15,2013-06-22 10:23:00,
2013-06-22 05:28:00,63.3,62.4,30.15,West,262,0.0,2.0,97,0.00,,,0.00,Wunderground v.1.15,2013-06-22 10:28:00,
2013-06-22 05:34:00,63.2,62.3,30.16,West,262,0.0,2.0,97,0.00,,,0.00,Wunderground v.1.15,2013-06-22 10:34:00,
2013-06-22 05:39:00,63.3,62.4,30.16,West,262,0.0,2.0,97,0.00,,,0.00,Wunderground v.1.15,2013-06-22 10:39:00,
2013-06-22 05:44:00,63.3,62.4,30.16,West,263,0.0,2.0,97,0.00,,,0.00,Wunderground v.1.15,2013-06-22 10:44:00,
2013-06-22 05:50:00,63.3,62.4,30.16,West,262,0.0,2.0,97,0.00,,,0.00,Wunderground v.1.15,2013-06-22 10:50:00,
2013-06-22 05:55:00,63.4,62.8,30.16,West,263,0.0,2.0,98,0.00,,,0.01,Wunderground v.1.15,2013-06-22 10:55:00,
2013-06-22 06:00:00,63.3,62.7,30.16,West,262,0.0,2.0,98,0.00,,,0.01,Wunderground v.1.15,2013-06-22 11:00:00,
2013-06-22 06:06:00,63.3,62.7,30.16,West,263,0.0,2.0,98,0.00,,,0.01,Wunderground v.1.15,2013-06-22 11:06:00,
2013-06-22 06:12:00,63.4,62.8,30.16,West,264,0.0,2.0,98,0.00,,,0.01,Wunderground v.1.15,2013-06-22 11:12:00,
2013-06-22 06:17:00,63.5,62.9,30.17,West,262,0.0,2.0,98,0.00,,,0.01,Wunderground v.1.15,2013-06-22 11:17:00,
2013-06-22 06:23:00,63.5,62.9,30.17,West,266,0.0,2.0,98,0.00,,,0.01,Wunderground v.1.15,2013-06-22 11:23:00,
2013-06-22 06:28:00,63.7,63.1,30.17,West,263,0.0,2.0,98,0.00,,,0.01,Wunderground v.1.15,2013-06-22 11:28:00,
2013-06-22 06:33:00,63.8,63.2,30.17,West,263,0.0,2.0,98,0.00,,,0.01,Wunderground v.1.15,2013-06-22 11:33:00,
2013-06-22 06:38:00,63.9,63.3,30.17,WSW,241,0.0,2.0,98,0.00,,,0.01,Wunderground v.1.15,2013-06-22 11:38:00,
2013-06-22 06:44:00,64.1,63.5,30.17,WSW,241,0.0,2.0,98,0.00,,,0.01,Wunderground v.1.15,2013-06-22 11:44:00,
2013-06-22 06:49:00,64.2,63.6,30.17,WSW,242,0.0,2.0,98,0.00,,,0.01,Wunderground v.1.15,2013-06-22 11:49:00,
2013-06-22 06:54:00,64.5,63.9,30.17,WSW,241,0.0,2.0,98,0.00,,,0.01,Wunderground v.1.15,2013-06-22 11:54:00,
2013-06-22 06:59:00,64.7,64.1,30.17,WSW,241,0.0,2.0,98,0.00,,,0.01,Wunderground v.1.15,2013-06-22 11:59:00,
2013-06-22 07:05:00,65.0,64.4,30.18,WSW,241,0.0,2.0,98,0.00,,,0.01,Wunderground v.1.15,2013-06-22 12:05:00,
2013-06-22 07:10:00,65.4,64.8,30.18,WSW,241,0.0,2.0,98,0.00,,,0.01,Wunderground v.1.15,2013-06-22 12:10:00,
2013-06-22 07:15:00,65.8,65.2,30.18,WSW,246,0.0,2.0,98,0.00,,,0.01,Wunderground v.1.15,2013-06-22 12:15:00,
2013-06-22 07:21:00,66.0,65.4,30.18,WSW,246,0.0,2.0,98,0.00,,,0.01,Wunderground v.1.15,2013-06-22 12:21:00,
2013-06-22 07:26:00,66.1,65.5,30.18,WSW,245,0.0,2.0,98,0.00,,,0.01,Wunderground v.1.15,2013-06-22 12:26:00,
2013-06-22 07:31:00,66.1,65.5,30.19,WSW,246,0.0,2.0,98,0.00,,,0.01,Wunderground v.1.15,2013-06-22 12:31:00,
2013-06-22 07:37:00,66.5,65.9,30.19,WSW,245,0.0,2.0,98,0.00,,,0.01,Wunderground v.1.15,2013-06-22 12:37:00,
2013-06-22 07:42:00,66.6,65.7,30.19,WSW,242,0.0,2.0,97,0.00,,,0.01,Wunderground v.1.15,2013-06-22 12:42:00,
2013-06-22 07:47:00,66.7,65.8,30.19,SW,232,0.0,2.0,97,0.00,,,0.01,Wunderground v.1.15,2013-06-22 12:47:00,
2013-06-22 07:52:00,66.7,65.8,30.19,SW,219,0.0,2.0,97,0.00,,,0.01,Wunderground v.1.15,2013-06-22 12:52:00,
2013-06-22 07:58:00,66.9,66.0,30.19,SW,219,0.0,2.0,97,0.00,,,0.01,Wunderground v.1.15,2013-06-22 12:58:00,
2013-06-22 08:03:00,67.2,66.3,30.19,SW,231,0.0,2.0,97,0.00,,,0.01,Wunderground v.1.15,2013-06-22 13:03:00,
2013-06-22 08:08:00,67.6,66.4,30.19,SW,225,0.0,2.0,96,0.00,,,0.01,Wunderground v.1.15,2013-06-22 13:08:00,
2013-06-22 08:14:00,68.2,67.0,30.19,WSW,241,0.0,2.0,96,0.00,,,0.01,Wunderground v.1.15,2013-06-22 13:14:00,
2013-06-22 08:19:00,68.7,67.2,30.19,WSW,242,0.0,2.0,95,0.00,,,0.01,Wunderground v.1.15,2013-06-22 13:19:00,
2013-06-22 08:24:00,69.1,67.6,30.19,SW,233,0.0,2.0,95,0.00,,,0.01,Wunderground v.1.15,2013-06-22 13:24:00,
2013-06-22 08:30:00,69.6,67.8,30.19,WSW,238,0.0,2.0,94,0.00,,,0.01,Wunderground v.1.15,2013-06-22 13:30:00,
2013-06-22 08:35:00,70.1,68.0,30.19,SW,224,0.0,2.0,93,0.00,,,0.01,Wunderground v.1.15,2013-06-22 13:35:00,
2013-06-22 08:40:00,70.3,67.9,30.19,SW,219,1.0,1.0,92,0.00,,,0.01,Wunderground v.1.15,2013-06-22 13:40:00,
2013-06-22 08:45:00,70.7,68.6,30.20,SW,219,0.0,2.0,93,0.00,,,0.01,Wunderground v.1.15,2013-06-22 13:45:00,
2013-06-22 08:51:00,71.1,68.7,30.20,South,190,1.0,2.0,92,0.00,,,0.01,Wunderground v.1.15,2013-06-22 13:51:00,
2013-06-22 08:56:00,71.5,68.7,30.20,South,181,1.0,2.0,91,0.00,,,0.01,Wunderground v.1.15,2013-06-22 13:56:00,
2013-06-22 09:01:00,72.0,69.2,30.20,SSW,212,0.0,2.0,91,0.00,,,0.01,Wunderground v.1.15,2013-06-22 14:01:00,
2013-06-22 09:07:00,72.7,69.9,30.20,SW,226,0.0,2.0,91,0.00,,,0.01,Wunderground v.1.15,2013-06-22 14:07:00,
2013-06-22 09:12:00,73.3,70.2,30.20,West,273,0.0,2.0,90,0.00,,,0.01,Wunderground v.1.15,2013-06-22 14:12:00,
2013-06-22 09:17:00,73.8,70.0,30.20,SSW,195,0.0,2.0,88,0.00,,,0.01,Wunderground v.1.15,2013-06-22 14:17:00,
2013-06-22 09:23:00,74.3,70.2,30.20,North,9,0.0,2.0,87,0.00,,,0.01,Wunderground v.1.15,2013-06-22 14:23:00,
2013-06-22 09:28:00,74.6,70.1,30.20,North,358,0.0,2.0,86,0.00,,,0.01,Wunderground v.1.15,2013-06-22 14:28:00,
2013-06-22 09:33:00,74.8,69.6,30.20,WNW,297,1.0,3.0,84,0.00,,,0.01,Wunderground v.1.15,2013-06-22 14:33:00,
2013-06-22 09:38:00,75.1,69.9,30.20,NE,48,1.0,3.0,84,0.00,,,0.01,Wunderground v.1.15,2013-06-22 14:38:00,
2013-06-22 09:44:00,75.8,70.3,30.20,North,355,1.0,2.0,83,0.00,,,0.01,Wunderground v.1.15,2013-06-22 14:44:00,
2013-06-22 09:49:00,76.2,70.3,30.19,WNW,286,1.0,2.0,82,0.00,,,0.01,Wunderground v.1.15,2013-06-22 14:49:00,
2013-06-22 09:54:00,76.4,70.1,30.19,WNW,294,1.0,3.0,81,0.00,,,0.01,Wunderground v.1.15,2013-06-22 14:54:00,
2013-06-22 10:00:00,76.8,69.8,30.19,NNW,339,1.0,2.0,79,0.00,,,0.01,Wunderground v.1.15,2013-06-22 15:00:00,
2013-06-22 10:05:00,77.0,69.6,30.19,SSW,203,1.0,2.0,78,0.00,,,0.01,Wunderground v.1.15,2013-06-22 15:05:00,
2013-06-22 10:11:00,77.2,69.4,30.19,North,351,1.0,2.0,77,0.00,,,0.01,Wunderground v.1.15,2013-06-22 15:11:00,
2013-06-22 10:16:00,77.6,69.8,30.19,North,356,1.0,2.0,77,0.00,,,0.01,Wunderground v.1.15,2013-06-22 15:16:00,
2013-06-22 10:21:00,77.8,69.2,30.19,North,1,1.0,2.0,75,0.00,,,0.01,Wunderground v.1.15,2013-06-22 15:21:00,
2013-06-22 10:27:00,78.3,68.9,30.19,North,2,1.0,2.0,73,0.00,,,0.01,Wunderground v.1.15,2013-06-22 15:27:00,
2013-06-22 10:32:00,78.7,70.1,30.19,WNW,299,1.0,2.0,75,0.00,,,0.01,Wunderground v.1.15,2013-06-22 15:32:00,
2013-06-22 10:37:00,79.0,69.2,30.19,NNW,339,1.0,2.0,72,0.00,,,0.01,Wunderground v.1.15,2013-06-22 15:37:00,
2013-06-22 10:43:00,79.2,68.6,30.19,North,353,1.0,2.0,70,0.00,,,0.01,Wunderground v.1.15,2013-06-22 15:43:00,
2013-06-22 10:48:00,79.7,69.0,30.19,WNW,303,0.0,2.0,70,0.00,,,0.01,Wunderground v.1.15,2013-06-22 15:48:00,
2013-06-22 10:53:00,80.2,68.7,30.19,ENE,62,1.0,2.0,68,0.00,,,0.01,Wunderground v.1.15,2013-06-22 15:53:00,
2013-06-22 10:58:00,80.5,68.1,30.19,NNW,347,1.0,2.0,66,0.00,,,0.01,Wunderground v.1.15,2013-06-22 15:58:00,
2013-06-22 11:04:00,80.9,70.6,30.19,NW,318,1.0,2.0,71,0.00,,,0.01,Wunderground v.1.15,2013-06-22 16:04:00,
2013-06-22 11:09:00,81.1,70.4,30.19,ENE,58,1.0,2.0,70,0.00,,,0.01,Wunderground v.1.15,2013-06-22 16:09:00,
2013-06-22 11:14:00,80.8,69.2,30.19,NNE,17,1.0,3.0,68,0.00,,,0.01,Wunderground v.1.15,2013-06-22 16:14:00,
2013-06-22 11:19:00,81.2,70.5,30.19,North,352,1.0,1.0,70,0.00,,,0.01,Wunderground v.1.15,2013-06-22 16:19:00,
2013-06-22 11:25:00,81.9,71.2,30.19,NNE,12,0.0,2.0,70,0.00,,,0.01,Wunderground v.1.15,2013-06-22 16:25:00,
2013-06-22 11:30:00,82.6,69.6,30.19,NW,306,1.0,2.0,65,0.00,,,0.01,Wunderground v.1.15,2013-06-22 16:30:00,
2013-06-22 11:35:00,82.8,68.0,30.18,West,280,1.0,3.0,61,0.00,,,0.01,Wunderground v.1.15,2013-06-22 16:35:00,
2013-06-22 11:41:00,82.6,69.2,30.18,ENE,58,1.0,2.0,64,0.00,,,0.01,Wunderground v.1.15,2013-06-22 16:41:00,
2013-06-22 11:46:00,82.2,69.7,30.18,NNE,24,1.0,2.0,66,0.00,,,0.01,Wunderground v.1.15,2013-06-22 16:46:00,
2013-06-22 11:51:00,82.3,70.2,30.18,North,6,1.0,2.0,67,0.00,,,0.01,Wunderground v.1.15,2013-06-22 16:51:00,
2013-06-22 11:57:00,82.4,69.9,30.18,NNE,30,1.0,2.0,66,0.00,,,0.01,Wunderground v.1.15,2013-06-22 16:57:00,
2013-06-22 12:02:00,82.6,71.4,30.18,ESE,110,1.0,2.0,69,0.00,,,0.01,Wunderground v.1.15,2013-06-22 17:02:00,
2013-06-22 12:07:00,82.9,70.8,30.18,SW,218,1.0,2.0,67,0.00,,,0.01,Wunderground v.1.15,2013-06-22 17:07:00,
2013-06-22 12:12:00,82.3,68.0,30.18,NE,54,1.0,2.0,62,0.00,,,0.01,Wunderground v.1.15,2013-06-22 17:12:00,
2013-06-22 12:18:00,83.1,70.1,30.18,NW,309,1.0,3.0,65,0.00,,,0.01,Wunderground v.1.15,2013-06-22 17:18:00,
2013-06-22 12:23:00,83.7,69.3,30.18,NNE,13,1.0,2.0,62,0.00,,,0.01,Wunderground v.1.15,2013-06-22 17:23:00,
2013-06-22 12:28:00,83.9,69.0,30.17,WNW,299,2.0,3.0,61,0.00,,,0.01,Wunderground v.1.15,2013-06-22 17:28:00,
2013-06-22 12:34:00,84.3,68.9,30.17,NE,38,2.0,2.0,60,0.00,,,0.01,Wunderground v.1.15,2013-06-22 17:34:00,
2013-06-22 12:39:00,84.8,69.9,30.17,WNW,290,1.0,2.0,61,0.00,,,0.01,Wunderground v.1.15,2013-06-22 17:39:00,
2013-06-22 12:44:00,85.0,68.6,30.17,East,88,1.0,2.0,58,0.00,,,0.01,Wunderground v.1.15,2013-06-22 17:44:00,
2013-06-22 12:50:00,85.1,70.1,30.17,West,272,1.0,2.0,61,0.00,,,0.01,Wunderground v.1.15,2013-06-22 17:50:00,
2013-06-22 12:55:00,85.2,70.2,30.16,WNW,297,1.0,2.0,61,0.00,,,0.01,Wunderground v.1.15,2013-06-22 17:55:00,
2013-06-22 13:00:00,85.4,70.4,30.16,East,79,1.0,2.0,61,0.00,,,0.01,Wunderground v.1.15,2013-06-22 18:00:00,
2013-06-22 13:06:00,84.5,70.5,30.16,WSW,253,1.0,2.0,63,0.00,,,0.01,Wunderground v.1.15,2013-06-22 18:06:00,
2013-06-22 13:12:00,84.6,69.2,30.16,WNW,302,1.0,6.0,60,0.00,,,0.01,Wunderground v.1.15,2013-06-22 18:12:00,
2013-06-22 13:18:00,84.8,70.3,30.15,North,356,2.0,6.0,62,0.00,,,0.01,Wunderground v.1.15,2013-06-22 18:18:00,
2013-06-22 13:23:00,84.6,68.2,30.15,NW,307,2.0,3.0,58,0.00,,,0.01,Wunderground v.1.15,2013-06-22 18:23:00,
2013-06-22 13:29:00,84.7,70.2,30.15,ENE,77,2.0,3.0,62,0.00,,,0.01,Wunderground v.1.15,2013-06-22 18:29:00,
2013-06-22 13:34:00,84.8,70.8,30.15,WNW,294,2.0,2.0,63,0.00,,,0.01,Wunderground v.1.15,2013-06-22 18:34:00,
2013-06-22 13:39:00,85.5,69.0,30.14,NNW,345,1.0,2.0,58,0.00,,,0.01,Wunderground v.1.15,2013-06-22 18:39:00,
2013-06-22 13:45:00,85.7,68.2,30.14,WNW,297,1.0,2.0,56,0.00,,,0.01,Wunderground v.1.15,2013-06-22 18:45:00,
2013-06-22 13:50:00,86.6,68.0,30.14,NW,305,1.0,2.0,54,0.00,,,0.01,Wunderground v.1.15,2013-06-22 18:50:00,
2013-06-22 13:55:00,87.0,66.7,30.14,SW,225,1.0,2.0,51,0.00,,,0.01,Wunderground v.1.15,2013-06-22 18:55:00,
2013-06-22 14:01:00,86.9,67.7,30.13,ENE,77,1.0,2.0,53,0.00,,,0.01,Wunderground v.1.15,2013-06-22 19:01:00,
2013-06-22 14:06:00,85.7,69.2,30.13,ENE,71,1.0,2.0,58,0.00,,,0.01,Wunderground v.1.15,2013-06-22 19:06:00,
2013-06-22 14:11:00,85.1,67.6,30.13,ENE,73,2.0,2.0,56,0.00,,,0.01,Wunderground v.1.15,2013-06-22 19:11:00,
2013-06-22 14:17:00,85.5,68.0,30.12,NE,50,1.0,2.0,56,0.00,,,0.01,Wunderground v.1.15,2013-06-22 19:17:00,
2013-06-22 14:23:00,85.1,66.6,30.12,ESE,116,1.0,3.0,54,0.00,,,0.01,Wunderground v.1.15,2013-06-22 19:23:00,
2013-06-22 14:28:00,85.7,67.7,30.12,ESE,110,1.0,3.0,55,0.00,,,0.01,Wunderground v.1.15,2013-06-22 19:28:00,
2013-06-22 14:33:00,86.3,68.2,30.12,NNW,328,1.0,2.0,55,0.00,,,0.01,Wunderground v.1.15,2013-06-22 19:33:00,
2013-06-22 14:39:00,86.9,69.8,30.12,WNW,300,1.0,2.0,57,0.00,,,0.01,Wunderground v.1.15,2013-06-22 19:39:00,
2013-06-22 14:44:00,86.5,70.0,30.12,West,268,1.0,2.0,58,0.00,,,0.01,Wunderground v.1.15,2013-06-22 19:44:00,
2013-06-22 14:49:00,86.6,68.0,30.11,WSW,246,1.0,2.0,54,0.00,,,0.01,Wunderground v.1.15,2013-06-22 19:49:00,
2013-06-22 14:55:00,87.3,70.2,30.11,NNW,330,1.0,2.0,57,0.00,,,0.01,Wunderground v.1.15,2013-06-22 19:55:00,
2013-06-22 15:00:00,87.4,70.8,30.11,ENE,68,0.0,2.0,58,0.00,,,0.01,Wunderground v.1.15,2013-06-22 20:00:00,
2013-06-22 15:05:00,86.0,71.5,30.11,East,81,1.0,2.0,62,0.00,,,0.01,Wunderground v.1.15,2013-06-22 20:05:00,
2013-06-22 15:10:00,86.0,70.5,30.11,ENE,77,1.0,2.0,60,0.00,,,0.01,Wunderground v.1.15,2013-06-22 20:10:00,
2013-06-22 15:16:00,86.5,70.0,30.10,NNE,32,1.0,2.0,58,0.00,,,0.01,Wunderground v.1.15,2013-06-22 20:16:00,
2013-06-22 15:21:00,87.5,70.4,30.10,WSW,242,0.0,2.0,57,0.00,,,0.01,Wunderground v.1.15,2013-06-22 20:21:00,
2013-06-22 15:26:00,87.7,70.6,30.10,NE,54,1.0,2.0,57,0.00,,,0.01,Wunderground v.1.15,2013-06-22 20:26:00,
2013-06-22 15:31:00,87.2,69.6,30.10,ENE,60,1.0,2.0,56,0.00,,,0.01,Wunderground v.1.15,2013-06-22 20:31:00,
2013-06-22 15:37:00,86.9,69.3,30.09,NE,46,1.0,2.0,56,0.00,,,0.01,Wunderground v.1.15,2013-06-22 20:37:00,
2013-06-22 15:42:00,87.2,68.0,30.09,West,268,1.0,2.0,53,0.00,,,0.01,Wunderground v.1.15,2013-06-22 20:42:00,
2013-06-22 15:47:00,86.9,68.3,30.09,West,271,1.0,2.0,54,0.00,,,0.01,Wunderground v.1.15,2013-06-22 20:47:00,
2013-06-22 15:53:00,86.9,68.8,30.09,SSW,198,1.0,2.0,55,0.00,,,0.01,Wunderground v.1.15,2013-06-22 20:53:00,
2013-06-22 15:58:00,86.8,70.2,30.08,ENE,57,1.0,2.0,58,0.00,,,0.01,Wunderground v.1.15,2013-06-22 20:58:00,
2013-06-22 16:03:00,87.1,67.3,30.08,NE,40,0.0,2.0,52,0.00,,,0.01,Wunderground v.1.15,2013-06-22 21:03:00,
2013-06-22 16:09:00,87.3,68.1,30.08,NNW,348,0.0,2.0,53,0.00,,,0.01,Wunderground v.1.15,2013-06-22 21:09:00,
2013-06-22 16:14:00,88.1,71.5,30.08,NNW,347,0.0,2.0,58,0.00,,,0.01,Wunderground v.1.15,2013-06-22 21:14:00,
2013-06-22 16:19:00,88.0,71.4,30.08,NNW,344,0.0,2.0,58,0.00,,,0.01,Wunderground v.1.15,2013-06-22 21:19:00,
2013-06-22 16:25:00,87.6,67.8,30.08,WNW,292,0.0,2.0,52,0.00,,,0.01,Wunderground v.1.15,2013-06-22 21:25:00,
2013-06-22 16:31:00,87.0,69.4,30.08,WNW,290,0.0,2.0,56,0.00,,,0.01,Wunderground v.1.15,2013-06-22 21:31:00,
2013-06-22 16:36:00,87.2,65.1,30.08,WNW,291,0.0,2.0,48,0.00,,,0.01,Wunderground v.1.15,2013-06-22 21:36:00,
2013-06-22 16:41:00,86.5,67.3,30.07,WNW,290,0.0,2.0,53,0.00,,,0.01,Wunderground v.1.15,2013-06-22 21:41:00,
2013-06-22 16:47:00,85.9,65.7,30.07,SSE,159,0.0,2.0,51,0.00,,,0.01,Wunderground v.1.15,2013-06-22 21:47:00,
2013-06-22 16:52:00,85.8,68.3,30.07,SSE,167,0.0,2.0,56,0.00,,,0.01,Wunderground v.1.15,2013-06-22 21:52:00,
2013-06-22 16:57:00,85.6,68.1,30.06,SSE,167,0.0,2.0,56,0.00,,,0.01,Wunderground v.1.15,2013-06-22 21:57:00,
2013-06-22 17:03:00,85.0,67.0,30.06,WNW,293,0.0,2.0,55,0.00,,,0.01,Wunderground v.1.15,2013-06-22 22:03:00,
2013-06-22 17:08:00,85.0,66.5,30.06,WNW,286,0.0,2.0,54,0.00,,,0.01,Wunderground v.1.15,2013-06-22 22:08:00,
2013-06-22 17:13:00,85.2,68.8,30.06,WNW,286,0.0,2.0,58,0.00,,,0.01,Wunderground v.1.15,2013-06-22 22:13:00,
2013-06-22 17:19:00,84.7,67.3,30.06,WNW,286,0.0,2.0,56,0.00,,,0.01,Wunderground v.1.15,2013-06-22 22:19:00,
2013-06-22 17:24:00,83.9,64.9,30.05,WNW,286,0.0,2.0,53,0.00,,,0.01,Wunderground v.1.15,2013-06-22 22:24:00,
2013-06-22 17:29:00,84.1,68.2,30.05,WNW,286,0.0,2.0,59,0.00,,,0.01,Wunderground v.1.15,2013-06-22 22:29:00,
2013-06-22 17:35:00,84.6,66.1,30.05,WNW,286,0.0,2.0,54,0.00,,,0.01,Wunderground v.1.15,2013-06-22 22:35:00,
2013-06-22 17:41:00,84.6,66.1,30.05,West,280,0.0,2.0,54,0.00,,,0.01,Wunderground v.1.15,2013-06-22 22:41:00,
2013-06-22 17:46:00,84.3,65.8,30.06,West,280,0.0,2.0,54,0.00,,,0.01,Wunderground v.1.15,2013-06-22 22:46:00,
2013-06-22 17:51:00,83.9,67.0,30.06,NNE,15,0.0,2.0,57,0.00,,,0.01,Wunderground v.1.15,2013-06-22 22:51:00,
2013-06-22 17:57:00,82.9,65.1,30.05,NNE,13,0.0,2.0,55,0.00,,,0.01,Wunderground v.1.15,2013-06-22 22:57:00,
2013-06-22 18:02:00,82.3,65.0,30.05,NNE,26,0.0,2.0,56,0.00,,,0.01,Wunderground v.1.15,2013-06-22 23:02:00,
2013-06-22 18:07:00,82.1,65.4,30.05,NNE,26,0.0,2.0,57,0.00,,,0.01,Wunderground v.1.15,2013-06-22 23:07:00,
2013-06-22 18:13:00,81.8,66.1,30.05,NNE,26,0.0,2.0,59,0.00,,,0.01,Wunderground v.1.15,2013-06-22 23:13:00,
2013-06-22 18:18:00,81.6,65.9,30.05,NNE,26,0.0,2.0,59,0.00,,,0.01,Wunderground v.1.15,2013-06-22 23:18:00,
2013-06-22 18:23:00,81.4,66.7,30.06,NNE,26,0.0,2.0,61,0.00,,,0.01,Wunderground v.1.15,2013-06-22 23:23:00,
2013-06-22 18:28:00,81.1,66.4,30.05,NNE,26,0.0,2.0,61,0.00,,,0.01,Wunderground v.1.15,2013-06-22 23:28:00,
2013-06-22 18:34:00,80.8,66.1,30.05,NNE,26,0.0,2.0,61,0.00,,,0.01,Wunderground v.1.15,2013-06-22 23:34:00,
2013-06-22 18:39:00,80.3,65.6,30.06,NNE,26,0.0,2.0,61,0.00,,,0.01,Wunderground v.1.15,2013-06-22 23:39:00,
2013-06-22 18:44:00,80.0,65.8,30.06,NNE,26,0.0,2.0,62,0.00,,,0.01,Wunderground v.1.15,2013-06-22 23:44:00,
2013-06-22 18:50:00,79.8,67.0,30.05,NNE,27,0.0,2.0,65,0.00,,,0.01,Wunderground v.1.15,2013-06-22 23:50:00,
2013-06-22 18:55:00,79.7,66.4,30.05,NNE,26,0.0,2.0,64,0.00,,,0.01,Wunderground v.1.15,2013-06-22 23:55:00,
2013-06-22 19:00:00,79.6,68.1,30.05,NNE,29,0.0,2.0,68,0.00,,,0.01,Wunderground v.1.15,2013-06-23 00:00:00,
2013-06-22 19:06:00,79.2,68.1,30.05,NNE,26,0.0,2.0,69,0.00,,,0.01,Wunderground v.1.15,2013-06-23 00:06:00,
2013-06-22 19:11:00,79.0,67.5,30.05,NNE,27,0.0,2.0,68,0.00,,,0.01,Wunderground v.1.15,2013-06-23 00:11:00,
2013-06-22 19:16:00,78.7,68.5,30.05,NNE,26,0.0,2.0,71,0.00,,,0.01,Wunderground v.1.15,2013-06-23 00:16:00,
2013-06-22 19:21:00,78.5,67.9,30.05,NNE,30,0.0,2.0,70,0.00,,,0.01,Wunderground v.1.15,2013-06-23 00:21:00,
2013-06-22 19:27:00,78.3,67.7,30.05,NNE,30,0.0,2.0,70,0.00,,,0.01,Wunderground v.1.15,2013-06-23 00:27:00,
2013-06-22 19:32:00,77.9,67.3,30.06,NNE,30,0.0,2.0,70,0.00,,,0.01,Wunderground v.1.15,2013-06-23 00:32:00,
2013-06-22 19:37:00,77.6,66.6,30.06,NNE,30,0.0,2.0,69,0.00,,,0.01,Wunderground v.1.15,2013-06-23 00:37:00,
2013-06-22 19:42:00,77.3,66.7,30.06,NNE,32,0.0,2.0,70,0.00,,,0.01,Wunderground v.1.15,2013-06-23 00:42:00,
2013-06-22 19:48:00,77.0,66.5,30.06,NNE,30,0.0,2.0,70,0.00,,,0.01,Wunderground v.1.15,2013-06-23 00:48:00,
2013-06-22 19:53:00,76.8,65.9,30.06,NNE,32,0.0,2.0,69,0.00,,,0.01,Wunderground v.1.15,2013-06-23 00:53:00,
2013-06-22 19:58:00,76.6,66.1,30.07,NNE,32,0.0,2.0,70,0.00,,,0.01,Wunderground v.1.15,2013-06-23 00:58:00,
2013-06-22 20:04:00,76.3,65.4,30.07,NNE,32,0.0,2.0,69,0.00,,,0.01,Wunderground v.1.15,2013-06-23 01:04:00,
2013-06-22 20:09:00,76.3,65.4,30.07,NNE,29,0.0,2.0,69,0.00,,,0.01,Wunderground v.1.15,2013-06-23 01:09:00,
2013-06-22 20:15:00,76.1,65.2,30.08,NNE,30,0.0,2.0,69,0.00,,,0.01,Wunderground v.1.15,2013-06-23 01:15:00,
2013-06-22 20:20:00,75.8,64.9,30.08,NNE,30,0.0,2.0,69,0.00,,,0.01,Wunderground v.1.15,2013-06-23 01:20:00,
2013-06-22 20:26:00,75.6,65.1,30.08,NNE,30,0.0,2.0,70,0.00,,,0.01,Wunderground v.1.15,2013-06-23 01:26:00,
2013-06-22 20:31:00,75.4,64.9,30.08,NNE,30,0.0,2.0,70,0.00,,,0.01,Wunderground v.1.15,2013-06-23 01:31:00,
2013-06-22 20:36:00,74.9,64.9,30.08,NNE,30,0.0,2.0,71,0.00,,,0.01,Wunderground v.1.15,2013-06-23 01:36:00,
2013-06-22 20:41:00,74.4,64.8,30.09,NNE,30,0.0,2.0,72,0.00,,,0.01,Wunderground v.1.15,2013-06-23 01:41:00,
2013-06-22 20:47:00,74.0,66.7,30.09,NNE,30,0.0,2.0,78,0.00,,,0.01,Wunderground v.1.15,2013-06-23 01:47:00,
2013-06-22 20:52:00,73.6,67.0,30.09,NNE,30,0.0,2.0,80,0.00,,,0.01,Wunderground v.1.15,2013-06-23 01:52:00,
2013-06-22 20:57:00,73.2,66.7,30.09,NNE,30,0.0,2.0,80,0.00,,,0.01,Wunderground v.1.15,2013-06-23 01:57:00,
2013-06-22 21:02:00,72.8,67.0,30.09,NNE,30,0.0,2.0,82,0.00,,,0.01,Wunderground v.1.15,2013-06-23 02:02:00,
2013-06-22 21:08:00,72.3,66.8,30.09,NNE,30,0.0,2.0,83,0.00,,,0.01,Wunderground v.1.15,2013-06-23 02:08:00,
2013-06-22 21:13:00,71.8,65.7,30.10,NNE,29,0.0,2.0,81,0.00,,,0.01,Wunderground v.1.15,2013-06-23 02:13:00,
2013-06-22 21:18:00,71.6,65.5,30.10,NNE,30,0.0,2.0,81,0.00,,,0.01,Wunderground v.1.15,2013-06-23 02:18:00,
2013-06-22 21:24:00,71.4,65.3,30.10,NNE,30,0.0,2.0,81,0.00,,,0.01,Wunderground v.1.15,2013-06-23 02:24:00,
2013-06-22 21:29:00,71.4,65.6,30.10,NNE,30,0.0,2.0,82,0.00,,,0.01,Wunderground v.1.15,2013-06-23 02:29:00,
2013-06-22 21:34:00,71.3,65.5,30.11,NNE,30,0.0,2.0,82,0.00,,,0.01,Wunderground v.1.15,2013-06-23 02:34:00,
2013-06-22 21:40:00,71.1,65.3,30.11,NNE,30,0.0,2.0,82,0.00,,,0.01,Wunderground v.1.15,2013-06-23 02:40:00,
2013-06-22 21:45:00,70.9,65.5,30.11,NNE,33,0.0,2.0,83,0.00,,,0.01,Wunderground v.1.15,2013-06-23 02:45:00,
2013-06-22 21:50:00,70.8,65.0,30.10,NNE,33,0.0,2.0,82,0.00,,,0.01,Wunderground v.1.15,2013-06-23 02:50:00,
2013-06-22 21:56:00,70.7,64.9,30.11,NNE,33,0.0,2.0,82,0.00,,,0.01,Wunderground v.1.15,2013-06-23 02:56:00,
2013-06-22 22:02:00,70.7,65.3,30.11,NNE,33,0.0,2.0,83,0.00,,,0.01,Wunderground v.1.15,2013-06-23 03:02:00,
2013-06-22 22:07:00,70.7,65.3,30.11,NNE,33,0.0,2.0,83,0.00,,,0.01,Wunderground v.1.15,2013-06-23 03:07:00,
2013-06-22 22:12:00,70.5,65.1,30.11,NNE,33,0.0,2.0,83,0.00,,,0.01,Wunderground v.1.15,2013-06-23 03:12:00,
2013-06-22 22:18:00,70.1,65.7,30.11,NE,34,0.0,2.0,86,0.00,,,0.01,Wunderground v.1.15,2013-06-23 03:18:00,
2013-06-22 22:23:00,69.7,65.7,30.11,NNE,33,0.0,2.0,87,0.00,,,0.01,Wunderground v.1.15,2013-06-23 03:23:00,
2013-06-22 22:28:00,69.3,65.6,30.11,NNE,33,0.0,2.0,88,0.00,,,0.01,Wunderground v.1.15,2013-06-23 03:28:00,
2013-06-22 22:34:00,68.9,65.2,30.11,NNE,33,0.0,2.0,88,0.00,,,0.01,Wunderground v.1.15,2013-06-23 03:34:00,
2013-06-22 22:39:00,68.6,65.5,30.11,NNE,33,0.0,2.0,90,0.00,,,0.01,Wunderground v.1.15,2013-06-23 03:39:00,
2013-06-22 22:44:00,68.4,65.7,30.12,NNE,33,0.0,2.0,91,0.00,,,0.01,Wunderground v.1.15,2013-06-23 03:44:00,
2013-06-22 22:50:00,68.3,65.6,30.12,NNE,33,0.0,2.0,91,0.00,,,0.01,Wunderground v.1.15,2013-06-23 03:50:00,
2013-06-22 22:55:00,68.1,65.4,30.12,NNE,33,0.0,2.0,91,0.00,,,0.01,Wunderground v.1.15,2013-06-23 03:55:00,
2013-06-22 23:00:00,67.8,65.1,30.12,NNE,33,0.0,2.0,91,0.00,,,0.01,Wunderground v.1.15,2013-06-23 04:00:00,
2013-06-22 23:01:00,67.7,65.0,30.12,NNE,32,0.0,2.0,91,0.00,,,0.01,Wunderground v.1.15,2013-06-23 04:01:00,
2013-06-22 23:02:00,67.7,65.0,30.12,NNE,33,0.0,2.0,91,0.00,,,0.01,Wunderground v.1.15,2013-06-23 04:02:00,
2013-06-22 23:04:00,67.7,65.0,30.12,NNE,33,0.0,2.0,91,0.00,,,0.01,Wunderground v.1.15,2013-06-23 04:04:00,
2013-06-22 23:10:00,67.6,64.9,30.12,NNE,33,0.0,2.0,91,0.00,,,0.01,Wunderground v.1.15,2013-06-23 04:10:00,
2013-06-22 23:15:00,67.6,64.9,30.12,NNE,33,0.0,2.0,91,0.00,,,0.01,Wunderground v.1.15,2013-06-23 04:15:00,
2013-06-22 23:16:00,67.6,64.9,30.12,NNE,33,0.0,2.0,91,0.00,,,0.01,Wunderground v.1.15,2013-06-23 04:16:00,
2013-06-22 23:21:00,67.6,65.2,30.12,NNE,33,0.0,2.0,92,0.00,,,0.01,Wunderground v.1.15,2013-06-23 04:21:00,
2013-06-22 23:27:00,67.5,65.1,30.12,NNE,32,0.0,2.0,92,0.00,,,0.01,Wunderground v.1.15,2013-06-23 04:27:00,
2013-06-22 23:32:00,67.4,65.0,30.12,NNE,33,0.0,2.0,92,0.00,,,0.01,Wunderground v.1.15,2013-06-23 04:32:00,
2013-06-22 23:37:00,67.3,65.2,30.12,NNE,33,0.0,2.0,93,0.00,,,0.01,Wunderground v.1.15,2013-06-23 04:37:00,
2013-06-22 23:42:00,67.2,65.1,30.12,East,99,0.0,2.0,93,0.00,,,0.01,Wunderground v.1.15,2013-06-23 04:42:00,
2013-06-22 23:48:00,67.0,64.9,30.12,East,99,0.0,2.0,93,0.00,,,0.01,Wunderground v.1.15,2013-06-23 04:48:00,
2013-06-22 23:53:00,66.8,64.7,30.12,East,99,0.0,2.0,93,0.00,,,0.01,Wunderground v.1.15,2013-06-23 04:53:00,
2013-06-22 23:59:00,66.8,64.7,30.12,East,99,0.0,2.0,93,0.00,,,0.01,Wunderground v.1.15,2013-06-23 04:59:00,